Location: Aulnoy
(48.8410°N, 3.0967°E)
Time: 22:33:30
(UTC+00:00)

NOSS 8 (A) - Pass Details

Date: 09 February 2023
Orbit: 353 x 1707 km, 63.3° (Epoch: 10 March)

Event Time Altitude Azimuth Distance (km) Brightness Sun altitude
Rises 18:27:18 0° 218° (SW) 2,899 9.2 -15.1°
Reaches altitude 10° 18:29:52 10° 218° (SW) 1,806 8.0 -15.5°
Maximum altitude 18:33:44 83° 131° (SE) 452 4.3 -16.1°
Enters shadow 18:35:00 34° 46° (NE) 707 5.0 -16.3°
